YZ-2 R/B, 41840

Orbit data source: Space-Track

YZ-2 R/B, 41840 is space debris in GEO originally from a launch on Thu, 03 Nov 2016 UTC launched from the Wenchang Satellite Launch Center (WSC). Debris objects in space refer to the collection of defunct objects orbiting the Earth. Examples of debris include non-operational satellites, rocket bodies, and fragments generated from explosions, collisions, or faulty payload assembly.

Not visible in the next 10 days
Identifier
41840, 2016-065C
Orbit
GEO
Country
Flag of CNCN / PRC
Related business
Manufacturer
CALT
Mission
Spacecraft
Bus & Motor
YZ-2, Unknown motor
Mass
~2,000 kg wet, ~2,000 kg dry
Launch date (UTC)
2016-11-03 (9 years ago)
Launch vehicle
Unknown
Launch site
Wenchang Satellite Launch Center (WSC)
Object type
Payload
Rocket body
Debris
Shape & HBR
Cyl, 2.0 m
Radar Cross Section
17.609 m², Large (>1 m²)

Expand to show TLE details & history
Last TLE update: 23 hours ago

TLE from 23 hours ago
0 YZ-2 R/B
1 41840U 16065C   25351.57166290 -.00000158  00000-0  00000-0 0  9992
2 41840   8.8881  68.5102 0469735 227.3229 128.4735  0.93473958 31153
Epoch: 2025-12-17T13:43Z
TLE epoch observation values (Epoch: 2025-12-17T13:43:11.674Z)
Latitude
0.00001°
Longitude
136.1183°
Altitude
39,166.042 km
Speed
2.913 km/s
True Right ascension
04h 33m 25s
True Declination
0° 00' 00"
Sunlit
Object was in daylight at epoch
Visualization orbit readout
Latitude
Unknown
Longitude
Unknown
Altitude
Unknown
Speed
Unknown
Apparent Right ascension
Unknown
Apparent Declination
Unknown
Sunlit
N/A
Visualization observer readout
Local Sidereal Time
11:56:17
Azimuth
Unknown
Elevation
Unknown
Doppler factor
Unknown
Orbital elements
Apogee altitude
39,883.414 km
Perigee altitude
35,732.273 km
Semi-major axis
44,185.981 km
Eccentricity
0.04697
Inclination
8.8881°
RAAN
68.5102°
Arg. of periapsis
227.3229°
True anomaly
132.53554°
Mean anomaly
128.4735°
Eccentric anomaly
130.51945°
Mean motion
0.23368 °/min
Orbital period
1,540.59 mins
BSTAR
0
Loading maneuver chart data...
Computing Atmospheric mass density...
Loading historical data...
Loading historical data...
Loading historical data...
Loading historical data...
Loading historical data...
Loading historical data...
Loading historical data...
Other satellites on launch #65 in the year 2016 (2016-11-03 UTC)

Documentation

Showing up to 5 results
|